Location: Campestrin
(46.4667°N, 11.7167°E)
Time: 06:34:50
(UTC+00:00)

CENTAUR R/B - Pass Details

Date: 18 April 2021
Orbit: 742 x 1446 km, 63.4° (Epoch: 18 April)

Event Time Altitude Azimuth Distance (km) Brightness Sun altitude
Rises 18:41:40 0° 317° (NW) 4,217 7.3 -6.7°
Reaches altitude 10° 18:44:29 10° 311° (NW) 3,330 6.7 -7.2°
Maximum altitude 18:52:11 44° 244° (WSW) 1,858 4.3 -8.4°
Drops below altitude 10° 19:00:25 10° 176° (S) 3,552 5.1 -9.6°
Sets 19:03:33 0° 170° (S) 4,521 5.6 -10.1°
